K0CVS Weather Reports


time (UTC)temp
C
wind
direction
speed
KPH
gust
KPH
rain 1hr
cm
rain 24hr
cm
rain mn
cm
humidity
%
barometer
mb
20260906175416 37 209 1.6 3.2 0.00 0.00 0.00 41 1015.5
20260906174914 37 206 0.0 3.2 0.00 0.00 0.00 42 1015.5
20260906174414 36 193 1.6 1.6 0.00 0.00 0.00 42 1015.5
20260906173903 36 217 0.0 1.6 0.00 0.00 0.00 44 1015.6
20260906173359 36 230 1.6 4.8 0.00 0.00 0.00 44 1015.6
20260906172858 37 217 0.0 1.6 0.00 0.00 0.00 44 1015.9
20260906172355 36 214 0.0 0.0 0.00 0.00 0.00 44 1015.9
20260906171855 36 193 1.6 3.2 0.00 0.00 0.00 43 1016.0
20260906171349 36 222 1.6 1.6 0.00 0.00 0.00 46 1016.0
20260906170845 36 221 0.0 1.6 0.00 0.00 0.00 46 1016.2
20260906170341 36 215 1.6 1.6 0.00 0.00 0.00 45 1016.2
20260906165837 36 204 0.0 0.0 0.00 0.00 0.00 46 1016.4
20260906165336 36 204 1.6 4.8 0.00 0.00 0.00 47 1016.4
20260906164831 36 261 3.2 4.8 0.00 0.00 0.00 47 1016.4
20260906164331 36 228 1.6 3.2 0.00 0.00 0.00 48 1016.4
20260906163827 35 214 0.0 3.2 0.00 0.00 0.00 49 1016.5
20260906163323 35 211 0.0 1.6 0.00 0.00 0.00 49 1016.5
20260906162820 35 210 0.0 3.2 0.00 0.00 0.00 49 1016.4
20260906162319 36 176 0.0 1.6 0.00 0.00 0.00 48 1016.4
20260906161815 35 223 0.0 0.0 0.00 0.00 0.00 50 1016.4
20260906161314 35 196 0.0 3.2 0.00 0.00 0.00 51 1016.5
20260906160813 35 175 1.6 3.2 0.00 0.00 0.00 51 1016.5
20260906160307 34 209 0.0 1.6 0.00 0.00 0.00 52 1016.4
20260906155805 34 227 0.0 3.2 0.00 0.00 0.00 52 1016.4
20260906155259 34 216 0.0 3.2 0.00 0.00 0.00 53 1016.3
20260906154755 34 205 1.6 1.6 0.00 0.00 0.00 52 1016.3
20260906154250 33 197 0.0 3.2 0.00 0.00 0.00 53 1016.3
20260906153749 33 197 0.0 3.2 0.00 0.00 0.00 54 1016.3
20260906153243 32 179 1.6 1.6 0.00 0.00 0.00 56 1016.1
20260906152739 32 213 1.6 3.2 0.00 0.00 0.00 57 1016.2
20260906152239 32 228 1.6 1.6 0.00 0.00 0.00 59 1016.2
20260906151738 31 210 1.6 1.6 0.00 0.00 0.00 60 1016.4
20260906151234 31 219 0.0 3.2 0.00 0.00 0.00 61 1016.2
20260906150729 31 231 0.0 1.6 0.00 0.00 0.00 62 1016.5
20260906150225 31 232 1.6 4.8 0.00 0.00 0.00 61 1016.3
20260906145723 31 224 0.0 1.6 0.00 0.00 0.00 62 1016.2
20260906145223 30 203 1.6 4.8 0.00 0.00 0.00 62 1016.4
20260906144718 30 208 0.0 1.6 0.00 0.00 0.00 63 1016.2
20260906144213 30 202 1.6 3.2 0.00 0.00 0.00 64 1016.4
20260906143712 30 200 0.0 3.2 0.00 0.00 0.00 64 1016.2
20260906143210 30 215 0.0 1.6 0.00 0.00 0.00 64 1016.4
20260906142709 30 164 1.6 3.2 0.00 0.00 0.00 65 1016.4
20260906142204 29 202 1.6 3.2 0.00 0.00 0.00 65 1016.2
20260906141703 29 179 0.0 1.6 0.00 0.00 0.00 65 1016.1
20260906141158 28 175 0.0 4.8 0.00 0.00 0.00 66 1016.1
20260906140657 28 211 0.0 1.6 0.00 0.00 0.00 67 1016.2
20260906140152 28 223 0.0 1.6 0.00 0.00 0.00 67 1016.1
20260906135649 28 211 0.0 0.0 0.00 0.00 0.00 68 1016.0
20260906135145 28 157 1.6 1.6 0.00 0.00 0.00 68 1016.2
20260906134641 28 206 1.6 3.2 0.00 0.00 0.00 68 1016.1
20260906134135 27 217 0.0 3.2 0.00 0.00 0.00 68 1016.1
20260906133631 27 210 1.6 1.6 0.00 0.00 0.00 69 1016.0
20260906133126 27 198 0.0 1.6 0.00 0.00 0.00 69 1016.0
20260906132627 27 200 0.0 1.6 0.00 0.00 0.00 69 1015.9
20260906132123 27 233 0.0 1.6 0.00 0.00 0.00 69 1015.8
20260906131618 27 210 0.0 1.6 0.00 0.00 0.00 70 1015.7
20260906131113 26 188 1.6 4.8 0.00 0.00 0.00 70 1015.7
20260906130608 26 215 0.0 0.0 0.00 0.00 0.00 71 1015.6
20260906130103 26 209 0.0 0.0 0.00 0.00 0.00 71 1015.7
20260906125601 26 210 0.0 0.0 0.00 0.00 0.00 71 1015.7
20260906125100 26 199 0.0 0.0 0.00 0.00 0.00 72 1015.7
20260906124556 26 224 0.0 0.0 0.00 0.00 0.00 72 1015.5
20260906124051 26 214 0.0 0.0 0.00 0.00 0.00 72 1015.4
20260906123550 26 219 0.0 0.0 0.00 0.00 0.00 72 1015.3
20260906123045 26 213 0.0 0.0 0.00 0.00 0.00 72 1015.3
20260906122544 26 220 0.0 0.0 0.00 0.00 0.00 72 1015.3
20260906122041 26 221 0.0 0.0 0.00 0.00 0.00 72 1015.2
20260906121536 26 218 0.0 0.0 0.00 0.00 0.00 71 1015.1
20260906121032 26 226 0.0 0.0 0.00 0.00 0.00 71 1015.1
20260906120527 26 205 0.0 1.6 0.00 0.00 0.00 71 1015.2
20260906120025 26 210 0.0 0.0 0.00 0.00 0.00 71 1015.1
20260906115524 26 220 0.0 0.0 0.00 0.00 0.00 71 1015.1
20260906115019 26 203 0.0 0.0 0.00 0.00 0.00 72 1015.1
20260906114514 26 209 0.0 0.0 0.00 0.00 0.00 72 1015.0
20260906114010 26 222 0.0 0.0 0.00 0.00 0.00 72 1014.9
20260906113508 25 184 0.0 0.0 0.00 0.00 0.00 72 1015.2
20260906113004 25 213 0.0 0.0 0.00 0.00 0.00 73 1015.0
20260906112459 25 224 0.0 0.0 0.00 0.00 0.00 73 1014.9
20260906111955 25 216 0.0 0.0 0.00 0.00 0.00 73 1014.8
20260906111454 25 224 0.0 0.0 0.00 0.00 0.00 73 1014.8
20260906110949 25 230 0.0 0.0 0.00 0.00 0.00 73 1014.8
20260906110444 25 239 0.0 0.0 0.00 0.00 0.00 73 1014.9
20260906105944 25 226 0.0 0.0 0.00 0.00 0.00 73 1015.0
20260906105439 25 225 0.0 0.0 0.00 0.00 0.00 73 1014.7
20260906104936 25 226 0.0 0.0 0.00 0.00 0.00 73 1015.0
20260906104434 25 224 0.0 0.0 0.00 0.00 0.00 73 1014.7
20260906103933 25 224 0.0 0.0 0.00 0.00 0.00 73 1014.8
20260906103431 25 223 0.0 0.0 0.00 0.00 0.00 73 1014.7
20260906102927 25 226 0.0 0.0 0.00 0.00 0.00 73 1014.6
20260906102426 25 226 0.0 0.0 0.00 0.00 0.00 73 1014.7
20260906101921 26 226 0.0 0.0 0.00 0.00 0.00 72 1014.8
20260906101417 26 235 0.0 0.0 0.00 0.00 0.00 72 1014.8
20260906100912 26 237 0.0 0.0 0.00 0.00 0.00 72 1014.9
20260906100412 26 226 0.0 0.0 0.00 0.00 0.00 72 1014.6
20260906095906 26 218 0.0 0.0 0.00 0.00 0.00 71 1014.7
20260906095402 26 239 0.0 0.0 0.00 0.00 0.00 71 1014.6
20260906094901 26 224 0.0 0.0 0.00 0.00 0.00 71 1014.5
20260906094357 26 216 0.0 0.0 0.00 0.00 0.00 70 1014.6
20260906093853 26 223 0.0 0.0 0.00 0.00 0.00 70 1014.6
20260906093349 26 229 0.0 0.0 0.00 0.00 0.00 70 1014.5
20260906092848 26 224 0.0 0.0 0.00 0.00 0.00 70 1014.5
20260906092343 26 223 0.0 0.0 0.00 0.00 0.00 71 1014.4
20260906091839 26 219 0.0 0.0 0.00 0.00 0.00 71 1014.6
20260906091335 26 223 0.0 0.0 0.00 0.00 0.00 71 1014.5
20260906090831 26 240 0.0 0.0 0.00 0.00 0.00 72 1014.5
20260906090330 26 218 0.0 0.0 0.00 0.00 0.00 72 1014.3
20260906085830 26 217 0.0 0.0 0.00 0.00 0.00 71 1014.5
20260906085329 26 217 0.0 0.0 0.00 0.00 0.00 71 1014.3
20260906084825 26 214 0.0 0.0 0.00 0.00 0.00 71 1014.4
20260906084324 26 222 0.0 0.0 0.00 0.00 0.00 71 1014.3
20260906083819 26 220 0.0 0.0 0.00 0.00 0.00 70 1014.4
20260906083314 26 219 0.0 0.0 0.00 0.00 0.00 70 1014.1
20260906082809 26 213 0.0 0.0 0.00 0.00 0.00 70 1014.2
20260906082306 26 217 0.0 0.0 0.00 0.00 0.00 69 1014.3
20260906081800 26 216 0.0 0.0 0.00 0.00 0.00 69 1014.1
20260906081255 27 219 0.0 0.0 0.00 0.00 0.00 68 1014.1
20260906080752 27 229 0.0 0.0 0.00 0.00 0.00 68 1014.4
20260906080248 27 219 0.0 0.0 0.00 0.00 0.00 67 1014.3
20260906075747 27 217 0.0 0.0 0.00 0.00 0.00 67 1014.2
20260906075247 27 222 0.0 0.0 0.00 0.00 0.00 67 1014.1
20260906074743 27 222 0.0 0.0 0.00 0.00 0.00 67 1014.3
20260906074242 27 212 0.0 0.0 0.00 0.00 0.00 67 1014.3
20260906073741 27 218 0.0 0.0 0.00 0.00 0.00 67 1014.0
20260906073236 27 214 0.0 0.0 0.00 0.00 0.00 67 1014.1
20260906072732 27 214 0.0 0.0 0.00 0.00 0.00 66 1014.2
20260906072228 27 211 0.0 0.0 0.00 0.00 0.00 66 1014.1
20260906071724 27 240 0.0 0.0 0.00 0.00 0.00 66 1014.1
20260906071224 27 213 0.0 0.0 0.00 0.00 0.00 65 1014.2
20260906070720 27 212 0.0 0.0 0.00 0.00 0.00 65 1014.1
20260906070216 27 212 0.0 0.0 0.00 0.00 0.00 65 1014.1
20260906065715 28 215 0.0 0.0 0.00 0.00 0.00 64 1014.3
20260906065210 28 216 0.0 0.0 0.00 0.00 0.00 63 1014.3
20260906064706 28 212 0.0 0.0 0.00 0.00 0.00 62 1014.2
20260906064201 28 225 0.0 0.0 0.00 0.00 0.00 62 1014.4
20260906063656 28 215 0.0 0.0 0.00 0.00 0.00 61 1014.3
20260906063152 28 209 0.0 0.0 0.00 0.00 0.00 60 1014.3
20260906062648 28 214 0.0 0.0 0.00 0.00 0.00 60 1014.5
20260906062146 28 231 0.0 0.0 0.00 0.00 0.00 60 1014.7
20260906061643 28 211 0.0 0.0 0.00 0.00 0.00 60 1014.6
20260906061142 28 214 0.0 0.0 0.00 0.00 0.00 59 1014.5
20260906060639 28 228 0.0 0.0 0.00 0.00 0.00 59 1014.5
20260906060136 28 211 0.0 0.0 0.00 0.00 0.00 59 1014.5
20260906055631 29 216 0.0 0.0 0.00 0.00 0.00 59 1014.7
20260906055126 29 214 0.0 0.0 0.00 0.00 0.00 59 1014.6
20260906054621 29 210 0.0 0.0 0.00 0.00 0.00 59 1014.5
20260906054117 29 208 0.0 0.0 0.00 0.00 0.00 59 1014.6
20260906053613 29 211 0.0 0.0 0.00 0.00 0.00 59 1014.7
20260906053108 29 211 0.0 0.0 0.00 0.00 0.00 58 1014.5
20260906052604 29 208 0.0 0.0 0.00 0.00 0.00 58 1014.7
20260906052101 29 207 0.0 0.0 0.00 0.00 0.00 58 1014.6
20260906051556 30 212 0.0 0.0 0.00 0.00 0.00 58 1014.9
20260906051051 30 207 0.0 0.0 0.00 0.00 0.00 58 1014.7
20260906050546 30 209 0.0 0.0 0.00 0.00 0.00 58 1014.6
20260906050041 30 209 0.0 0.0 0.00 0.00 0.00 59 1014.5
20260906045539 30 219 0.0 0.0 0.00 0.00 0.00 59 1014.7
20260906045036 30 213 0.0 0.0 0.00 0.00 0.00 59 1014.7
20260906044531 29 204 0.0 0.0 0.00 0.00 0.00 60 1014.7
20260906044026 29 211 0.0 0.0 0.00 0.00 0.00 61 1014.6
20260906043522 29 203 0.0 0.0 0.00 0.00 0.00 61 1014.7
20260906043018 30 215 0.0 0.0 0.00 0.00 0.00 61 1014.8
20260906042517 30 216 0.0 0.0 0.00 0.00 0.00 60 1014.5
20260906042017 30 211 0.0 0.0 0.00 0.00 0.00 61 1014.5
20260906041513 30 208 0.0 0.0 0.00 0.00 0.00 60 1014.5
20260906041013 30 208 0.0 0.0 0.00 0.00 0.00 60 1014.4
20260906040508 30 212 0.0 0.0 0.00 0.00 0.00 59 1014.4
20260906040003 30 218 0.0 0.0 0.00 0.00 0.00 59 1014.3
20260906035458 30 209 0.0 0.0 0.00 0.00 0.00 58 1014.4
20260906034954 30 212 0.0 0.0 0.00 0.00 0.00 58 1014.5
20260906034454 30 208 0.0 0.0 0.00 0.00 0.00 57 1014.2
20260906033949 30 205 0.0 0.0 0.00 0.00 0.00 57 1014.2
20260906033444 31 208 0.0 0.0 0.00 0.00 0.00 57 1014.2
20260906032940 31 208 0.0 0.0 0.00 0.00 0.00 57 1014.3
20260906032437 31 214 0.0 0.0 0.00 0.00 0.00 57 1014.2
20260906031936 31 206 0.0 0.0 0.00 0.00 0.00 57 1014.2
20260906031432 31 208 0.0 0.0 0.00 0.00 0.00 57 1014.1
20260906030927 31 212 0.0 0.0 0.00 0.00 0.00 57 1014.1
20260906030422 31 210 0.0 0.0 0.00 0.00 0.00 57 1014.1
20260906025922 31 212 0.0 0.0 0.00 0.00 0.00 56 1014.0
20260906025416 31 208 0.0 0.0 0.00 0.00 0.00 56 1013.8
20260906024915 31 206 0.0 0.0 0.00 0.00 0.00 56 1013.7
20260906024415 31 209 0.0 0.0 0.00 0.00 0.00 56 1013.7
20260906023910 31 207 0.0 0.0 0.00 0.00 0.00 56 1013.5
20260906023406 31 214 0.0 0.0 0.00 0.00 0.00 56 1013.7
20260906022901 31 217 0.0 0.0 0.00 0.00 0.00 55 1013.7
20260906022401 31 214 0.0 0.0 0.00 0.00 0.00 55 1013.2
20260906021857 32 215 0.0 0.0 0.00 0.00 0.00 55 1013.5
20260906021356 32 213 0.0 0.0 0.00 0.00 0.00 54 1013.2
20260906020851 32 207 0.0 0.0 0.00 0.00 0.00 54 1013.2
20260906020345 32 209 0.0 0.0 0.00 0.00 0.00 54 1013.2
20260906015840 32 206 0.0 0.0 0.00 0.00 0.00 54 1013.2
20260906015339 32 210 0.0 0.0 0.00 0.00 0.00 54 1013.1
20260906014838 32 213 0.0 0.0 0.00 0.00 0.00 54 1013.0
20260906014333 32 203 0.0 0.0 0.00 0.00 0.00 53 1012.8
20260906013830 32 200 0.0 0.0 0.00 0.00 0.00 53 1012.9
20260906013325 32 216 0.0 0.0 0.00 0.00 0.00 53 1012.7
20260906012821 32 224 0.0 0.0 0.00 0.00 0.00 53 1012.8
20260906012320 32 213 0.0 0.0 0.00 0.00 0.00 52 1012.8
20260906011815 32 220 0.0 0.0 0.00 0.00 0.00 52 1012.7
20260906011315 32 254 0.0 0.0 0.00 0.00 0.00 52 1012.8
20260906010811 33 222 0.0 0.0 0.00 0.00 0.00 51 1012.6
20260906010307 33 213 0.0 0.0 0.00 0.00 0.00 51 1012.7
20260906005802 33 217 0.0 0.0 0.00 0.00 0.00 50 1012.7
20260906005301 33 215 0.0 0.0 0.00 0.00 0.00 50 1012.7
20260906004800 33 211 0.0 0.0 0.00 0.00 0.00 50 1012.8
20260906004256 33 241 0.0 0.0 0.00 0.00 0.00 50 1012.7
20260906003755 33 206 0.0 0.0 0.00 0.00 0.00 50 1012.5
20260906003251 33 213 0.0 0.0 0.00 0.00 0.00 49 1012.6
20260906002746 33 221 0.0 0.0 0.00 0.00 0.00 49 1012.5
20260906002240 34 208 0.0 0.0 0.00 0.00 0.00 49 1012.7
20260906001736 34 241 0.0 0.0 0.00 0.00 0.00 49 1012.4
20260906001230 34 212 0.0 1.6 0.00 0.00 0.00 48 1012.7
20260906000726 34 210 0.0 1.6 0.00 0.00 0.00 48 1012.4
20260906000221 35 224 0.0 1.6 0.00 0.00 0.00 47 1012.6
20260905235721 35 203 0.0 1.6 0.00 0.00 0.00 47 1012.6
20260905235215 35 196 1.6 1.6 0.00 0.00 0.00 46 1012.6
20260905234711 35 218 0.0 0.0 0.00 0.00 0.00 46 1012.6
20260905234206 35 194 0.0 1.6 0.00 0.00 0.00 45 1012.4
20260905233701 35 263 0.0 1.6 0.00 0.00 0.00 45 1012.3
20260905233201 35 225 1.6 3.2 0.00 0.00 0.00 44 1012.4
20260905232656 36 211 0.0 1.6 0.00 0.00 0.00 44 1012.3
20260905232151 36 213 0.0 3.2 0.00 0.00 0.00 44 1012.5
20260905231647 36 220 0.0 1.6 0.00 0.00 0.00 44 1012.3
20260905231143 36 179 4.8 6.4 0.00 0.00 0.00 43 1012.4
20260905230639 36 240 0.0 3.2 0.00 0.00 0.00 43 1012.4
20260905230136 36 232 0.0 1.6 0.00 0.00 0.00 43 1012.4
20260905225637 36 164 0.0 1.6 0.00 0.00 0.00 43 1012.6
20260905225137 36 214 0.0 0.0 0.00 0.00 0.00 43 1012.3
20260905224636 36 204 0.0 0.0 0.00 0.00 0.00 43 1012.4
20260905224136 36 218 3.2 4.8 0.00 0.00 0.00 42 1012.3
20260905223633 36 235 1.6 6.4 0.00 0.00 0.00 42 1012.5
20260905223129 37 209 1.6 3.2 0.00 0.00 0.00 41 1012.4
20260905222624 37 209 0.0 3.2 0.00 0.00 0.00 38 1012.3
20260905222119 37 192 3.2 3.2 0.00 0.00 0.00 38 1012.4
20260905221615 37 198 3.2 3.2 0.00 0.00 0.00 39 1012.6
20260905221112 37 194 0.0 0.0 0.00 0.00 0.00 41 1012.4
20260905220607 37 272 1.6 3.2 0.00 0.00 0.00 40 1012.6
20260905220103 37 234 1.6 4.8 0.00 0.00 0.00 39 1012.7
20260905215602 37 192 1.6 3.2 0.00 0.00 0.00 37 1012.6
20260905215058 37 223 0.0 3.2 0.00 0.00 0.00 36 1012.8
20260905214554 38 197 0.0 3.2 0.00 0.00 0.00 35 1012.8
20260905214049 38 193 4.8 6.4 0.00 0.00 0.00 33 1012.8
20260905213544 38 137 3.2 11.3 0.00 0.00 0.00 34 1012.7
20260905213040 38 276 1.6 3.2 0.00 0.00 0.00 34 1012.8
20260905212540 38 221 1.6 1.6 0.00 0.00 0.00 34 1013.0
20260905212039 38 214 0.0 0.0 0.00 0.00 0.00 34 1013.1
20260905211535 38 238 0.0 1.6 0.00 0.00 0.00 34 1013.1
20260905211030 38 311 0.0 1.6 0.00 0.00 0.00 34 1013.0
20260905210526 38 216 0.0 4.8 0.00 0.00 0.00 33 1013.1
20260905210026 38 190 0.0 1.6 0.00 0.00 0.00 33 1013.4
20260905205525 38 184 0.0 3.2 0.00 0.00 0.00 33 1013.4
20260905205024 38 222 0.0 0.0 0.00 0.00 0.00 34 1013.4
20260905204519 38 255 0.0 3.2 0.00 0.00 0.00 32 1013.4
20260905204014 38 242 0.0 1.6 0.00 0.00 0.00 34 1013.5
20260905203509 38 169 4.8 6.4 0.00 0.00 0.00 34 1013.6
20260905203004 38 203 0.0 3.2 0.00 0.00 0.00 36 1013.7
20260905202459 38 147 3.2 3.2 0.00 0.00 0.00 35 1013.6
20260905201955 37 143 1.6 3.2 0.00 0.00 0.00 37 1013.8
20260905201450 37 188 1.6 3.2 0.00 0.00 0.00 37 1013.9
20260905200949 37 211 0.0 1.6 0.00 0.00 0.00 38 1014.0
20260905200446 37 171 1.6 1.6 0.00 0.00 0.00 37 1014.0
20260905195944 38 226 1.6 1.6 0.00 0.00 0.00 36 1014.0
20260905195439 38 203 0.0 4.8 0.00 0.00 0.00 37 1014.2
20260905194935 38 188 1.6 3.2 0.00 0.00 0.00 36 1014.1
20260905194435 38 182 1.6 6.4 0.00 0.00 0.00 37 1014.2
20260905193935 38 233 0.0 3.2 0.00 0.00 0.00 35 1014.2
20260905193430 38 234 1.6 3.2 0.00 0.00 0.00 35 1014.2
20260905192930 38 217 3.2 3.2 0.00 0.00 0.00 35 1014.3
20260905192425 39 231 1.6 3.2 0.00 0.00 0.00 34 1014.3
20260905191920 40 202 0.0 1.6 0.00 0.00 0.00 34 1014.3
20260905191420 39 268 1.6 1.6 0.00 0.00 0.00 35 1014.3
20260905190920 38 233 0.0 1.6 0.00 0.00 0.00 35 1014.4
20260905190417 38 224 0.0 3.2 0.00 0.00 0.00 35 1014.5
20260905185916 39 195 0.0 1.6 0.00 0.00 0.00 36 1014.7
20260905185412 39 215 1.6 1.6 0.00 0.00 0.00 35 1014.6
20260905184911 38 259 1.6 6.4 0.00 0.00 0.00 34 1014.6
20260905184411 38 218 0.0 3.2 0.00 0.00 0.00 36 1014.7
20260905183909 38 254 0.0 1.6 0.00 0.00 0.00 36 1014.7
20260905183404 38 239 1.6 4.8 0.00 0.00 0.00 37 1014.8
20260905182859 37 218 0.0 1.6 0.00 0.00 0.00 38 1015.0
20260905182358 38 140 3.2 3.2 0.00 0.00 0.00 37 1015.0
20260905181854 38 257 1.6 4.8 0.00 0.00 0.00 37 1015.0
20260905181354 38 227 1.6 3.2 0.00 0.00 0.00 37 1015.3
20260905180853 38 211 0.0 1.6 0.00 0.00 0.00 37 1015.3
20260905180349 38 220 0.0 4.8 0.00 0.00 0.00 36 1015.2
20260905175844 37 229 0.0 1.6 0.00 0.00 0.00 37 1015.3